Preview of NWS' New Version of Forecast
This preview is not operational and should not be used for support decisions.

Regional Weather Roundup (RWR)

Issued by National Weather Service (NWS)

                            
000
ASUS46 KPQR 180710
RWROR 

OREGON REGIONAL WEATHER ROUNDUP
NATIONAL WEATHER SERVICE PORTLAND OR
1200 AM PDT THU APR 18 2019

NOTE: "FAIR" INDICATES FEW OR NO CLOUDS BELOW 12,000 FEET WITH
NO SIGNIFICANT WEATHER AND/OR OBSTRUCTIONS TO VISIBILITY.

ORZ001>013-180800-
NORTHWEST OREGON

  
CITY           SKY/WX    TMP DP  RH WIND       PRES   REMARKS
ASTORIA        CLOUDY    50  47  89 CALM      30.30F                  
TILLAMOOK      MOCLDY    46  45  93 CALM      30.33S                  
NEWPORT        CLEAR     48  46  93 E5        30.33F                  
PORTLAND       MOCLDY    53  46  77 CALM      30.32R                  
VANCOUVER WA   PTCLDY    51  45  79 CALM      30.31R                  
SCAPPOOSE      MOCLDY    51  47  86 NW3       30.31S                  
HILLSBORO      PTCLDY    49  46  90 CALM      30.30F                  
AURORA         PTCLDY    50  47  89 CALM      30.31S                  
MCMINNVILLE    CLOUDY    53  49  86 NW5       30.30S                  
SALEM          CLOUDY    51  48  89 CALM      30.29F                  
CORVALLIS      PTCLDY    52  50  93 W5        30.31S                  
EUGENE         CLEAR     53  50  89 SW3       30.31R                  
$$

ORZ021-028-180800-
SOUTHWEST OREGON

  
CITY           SKY/WX    TMP DP  RH WIND       PRES   REMARKS
NORTH BEND     CLEAR     51  50  96 N3        30.32S                  
BROOKINGS      CLEAR     50  49  96 CALM      30.27F                  
ROSEBURG       CLEAR     56  48  74 CALM      30.29S                  
SEXTON SUMMIT  CLEAR     56  32  40 CALM      30.33F                  
GRANTS PASS    FAIR      54  48  82 CALM      30.31S                  
MEDFORD        CLEAR     54  45  71 SE6       30.29R                  
$$

ORZ014>016-041-180800-
COLUMBIA GORGE

  
CITY           SKY/WX    TMP DP  RH WIND       PRES   REMARKS
TROUTDALE      PTCLDY    50  46  86 CALM      30.32R                  
HOOD RIVER     CLEAR     48  43  81 MISG      30.30S                  
THE DALLES     PTCLDY    52  43  71 W5        30.28R                  
$$

ORZ029>031-041-044-049-050-061>064-502-503-505>511-180800-
EASTERN OREGON

  
CITY           SKY/WX    TMP DP  RH WIND       PRES   REMARKS
MADRAS         CLEAR     46  39  76 S5        30.32S                  
REDMOND        CLEAR     46  36  68 CALM      30.31S                  
BEND           CLEAR     45  36  70 S5        30.32S                  
PRINEVILLE     CLEAR     41  37  87 CALM      30.33R                  
KLAMATH FALLS  CLEAR     41  38  89 CALM      30.33R                  
LAKEVIEW       CLEAR     40  36  86 N7        30.35S                  
HERMISTON      CLEAR     52  40  63 S8        30.27R                  
PENDLETON      CLEAR     48  39  71 S7        30.28S                  
JOHN DAY       CLEAR     46  38  75 E7        30.34S                  
MEACHAM        CLEAR     32  29  88 CALM      30.31S                  
LA GRANDE      CLEAR     41  38  89 SW3       30.33R                  
BAKER CITY     CLEAR     38  35  89 CALM      30.33R                  
BURNS          CLEAR     42  35  76 CALM      30.34R                  
ROME             N/A     44  40  85 VRB6      30.33R                  
ONTARIO        CLEAR     47  38  71 CALM      30.32R                  
$$